Regional Weather Roundup
Issued by NWS New Orleans/Baton Rouge, LA

Home | Current Version | Previous Version | Graphics & Text | Print | Product List | Glossary On
Versions: 1 2 3 4 5 6 7 8 9 10 11 12 13 14 15 16 17 18 19 20 21 22 23 24 25 26 27 28 29 30 31 32 33 34 35 36 37 38 39 40 41 42 43 44 45 46 47 48 49 50
294
ASUS44 KLIX 310201
RWRLIX
NEW ORLEANS REGIONAL WEATHER ROUNDUP
NATIONAL WEATHER SERVICE NEW ORLEANS LA
900 PM CDT WED JUL 30 2014

NOTE: "FAIR" INDICATES FEW OR NO CLOUDS BELOW 12,000 FEET WITH NO
      SIGNIFICANT WEATHER AND/OR OBSTRUCTIONS TO VISIBILITY.
      SKY/WX - SKY CONDITION AND SIGNIFICANT WEATHER.
      TMP - AIR TEMPERATURE.     DP    - DEWPOINT TEMPERATURE.
      RH  - RELATIVE HUMIDITY.   PRES  - PRESSURE.
      HI  - HEAT INDEX.          WCI   - WIND CHILL INDEX.

*  THESE STATIONS ARE NOT NWS OR FAA STATIONS AND ARE NOT UNDER
   NWS QUALITY CONTROL.

LAZ038-040-048-061>063-065>067-069-310300-
SOUTHEAST LOUISIANA

CITY           SKY/WX    TMP DP  RH WIND       PRES   REMARKS
N.O. AUDUBON     N/A     82  61  49 MISG        N/A
N.O. INTL ARPT PTCLDY    80  61  52 NE9       30.01S
N.O. LAKEFRONT CLEAR     83  62  49 NE13      30.02R
N.O. DOWNTOWN*   N/A     82  59  44 N5        30.02R
SLIDELL        CLEAR     73  66  78 CALM      30.01S
BATON ROUGE    CLEAR     76  65  68 NE5       30.01S
BOOTHVILLE     CLEAR     79  65  62 CALM      30.02R
BELLE CHASSE   PTCLDY    72  66  81 NE5       30.01R
BOGALUSA*        N/A     72  67  82 N3        30.03S
GALLIANO*      NOT AVBL
NEW ROADS*       N/A     74  69  84 N3        30.02R
GONZALES*        N/A     74  70  86 CALM      30.01R
HAMMOND*       CLEAR     73  63  68 CALM      30.04R
HOUMA*         CLEAR     77  65  67 CALM      30.01R
PORT FOURCHON* MOCLDY    82  70  65 E5        30.03R

$$

MSZ070-080>082-310300-
SOUTHERN MISSISSIPPI

CITY           SKY/WX    TMP DP  RH WIND       PRES   REMARKS
MCCOMB         CLEAR     76  60  57 CALM      30.04R
GULFPORT       CLEAR     82  58  43 N5        30.01R
BILOXI         CLEAR     78  61  55 NE6       30.02R
PASCAGOULA     CLEAR     72  65  78 CALM      30.02R
STENNIS ARPT*  CLEAR    N/A N/A N/A CALM      30.01S

$$

COASTAL OBSERVATIONS
LAKE AND NEARSHORE STATIONS

STATION/POSITION TIME  TEMP    WIND        PRES    WAVE
                       AIR SEA DIR/SP/G            HT/PER
                 (UTC) (F)     (DEG/KT/KT) (MB)    (FT/S)
PASCAGOULA       0100   79      20/  4/  4 1015.6
WAVELAND YACHT   0100   82      30/  9/ 10 1015.6
GRAND ISLE       0100   82 87   80/  3/  5 1016.9
SOUTHWEST PASS   0100   82 85   40/  8/  9 1016.7
NEW CANAL        0100   84 85   30/ 11/ 13 1016.5
SHELL BEACH      0100   83 82  340/  8/ 10 1016.0

OFFSHORE STATIONS

STATION/POSITION TIME  TEMP    WIND        PRES    WAVE
                       AIR SEA DIR/SP/G            HT/PER
                 (UTC) (F)     (DEG/KT/KT) (MB)    (FT/S)
64 S DAUPHIN ISL 0125   81 86  350/  4/  6 1016.4

$$




USA.gov is the U.S. government's official web portal to all federal, state and local government web resources and services.